Regional Weather Roundup
Issued by NWS State College, PA

Home | Current Version | Previous Version | Graphics & Text | Print | Product List | Glossary Off
Versions: 1 2 3 4 5 6 7 8 9 10 11 12 13 14 15 16 17 18 19 20 21 22 23 24 25 26 27 28 29 30 31 32 33 34 35 36 37 38 39 40 41 42 43 44 45 46 47 48 49 50

000
ASUS41 KCTP 300603
RWRCTP

REGIONAL WEATHER ROUNDUP
NATIONAL WEATHER SERVICE STATE COLLEGE PA
200 AM EDT SUN APR 30 2017

Note: "fair" indicates few or no clouds below 12,000 feet with no
significant weather and/or obstructions to visibility.

* = STATION THAT DOES NOT REPORT PRECIPITATION /E.G. RAIN...SNOW...ETC/
    THUNDER OR FOG.

PAZ002>004-007>009-013>016-020>023-029>032-300700-
WESTERN PENNSYLVANIA

CITY           SKY/WX    TMP DP  RH WIND       PRES   REMARKS
ERIE           PTCLDY    47  40  76 NE17      30.13F
MEADVILLE      CLOUDY    49  48  97 NE12      30.10F
FRANKLIN*      CLOUDY    50  46  87 E9        30.12F
NEW CASTLE     FAIR      53  52  96 E3        30.11F
BEAVER COUNTY  NOT AVBL
BUTLER*        CLEAR     54  52  94 E7        30.12F
PITTSBURGH INT MOCLDY    58  57  97 E7        30.09F
PITTSBURGH     MOCLDY    59  55  87 NE5       30.09F
INDIANA*       CLOUDY    59  59 100 E7        30.15F
LATROBE        CLEAR     59  59 100 N5        30.11F
WASHINGTON CO* CLOUDY    61  57  88 NE7       30.10F
$$

PAZ004>006-010>012-017>019-024>028-033>037-041-042-045-046-049>053-300700-
CENTRAL PENNSYLVANIA

CITY           SKY/WX    TMP DP  RH WIND       PRES   REMARKS
BRADFORD       CLOUDY    48  48 100 NE6       30.17F
DUBOIS         CLOUDY    54  51  90 E8        30.13F
CLEARFIELD     CLOUDY    57  55  93 E6        30.17S
JOHNSTOWN      CLEAR     58  58 100 E8        30.13F
ALTOONA        CLEAR     62  59  90 N9        30.14F
STATE COLLEGE  CLOUDY    60  56  87 CALM      30.16S
WILLIAMSPORT   PTCLDY    57  52  83 CALM      30.16S
SELINSGROVE    CLEAR     57  54  89 N6        30.15F
FT INDIANTOWN  CLEAR     64  59  82 NE7       30.13S
CAPITAL CITY   CLEAR     67  57  70 E7        30.12S
HARRISBURG     CLEAR     68  59  73 CALM      30.12R
YORK           PTCLDY    67  62  84 NE3       30.12R
$$

PAZ038>040-043-044-047-048-054-055-060>062-067>071-300700-
EASTERN PENNSYLVANIA

CITY           SKY/WX    TMP DP  RH WIND       PRES   REMARKS
SCRANTON       CLEAR     57  41  55 N9        30.18F
MOUNT POCONO   CLEAR     52  46  80 NW9G17    30.15F
ALLENTOWN      CLEAR     60  54  80 CALM      30.14S
QUAKERTOWN*    CLEAR     61  55  82 CALM      30.15S
READING        CLEAR     64  57  78 NE6       30.13S
LANCASTER      CLEAR     65  60  84 E9        30.12S
COATESVILLE    CLEAR     66  59  77 NE6       30.15S
POTTSTOWN      PTCLDY    63  55  75 CALM      30.15R
BLUE BELL      PTCLDY    64  55  72 CALM      30.15R
DOYLESTOWN     CLEAR     63  56  78 N3        30.14R
WILLOW GROVE   NOT AVBL
NORTH PHILA    PTCLDY    68  58  70 NE12      30.14R
PHILADELPHIA   PTCLDY    71  58  63 N9        30.12R
$$




USA.gov is the U.S. government's official web portal to all federal, state and local government web resources and services.